Weather History for Rome, NY

Change the Weather History Date:

Saturday, November 9, 2013

  Actual Average Record
Temperature  
Mean Temperature 36 °F -  
Max Temperature 44 °F 48 °F 70 °F (2011)
Min Temperature 28 °F 31 °F 15 °F (1991)
Degree Days  
Heating Degree Days 29    
Moisture  
Dew Point 29 °F    
Average Humidity 75    
Maximum Humidity 89    
Minimum Humidity 55    
Precipitation  
Precipitation 0.00 in - - ()
Sea Level Pressure  
Sea Level Pressure 30.13 in    
Wind  
Wind Speed 3 mph (ESE)    
Max Wind Speed 9 mph    
Max Gust Speed -    
Visibility 10 miles    
Events Rain    
Averages and records for this station are not official NWS values.
T = Trace of Precipitation, MM = Missing Value Source: NWS Daily Summary

Daily Weather History Graph

Daily Weather History Graph

Search for Another Location

Airport:

Trip Planner

Search our weather history database for the weather conditions in past years. The results will help you decide how hot, cold, wet, or windy it might be!

Date:

Astronomy

Nov. 09, 2013 Rise Set
Actual Time 6:47 AM EST 4:43 PM EST
Civil Twilight 6:16 AM EST 5:13 PM EST
Nautical Twilight 5:42 AM EST 5:47 PM EST
Astronomical Twilight 5:09 AM EST 6:20 PM EST
Moon 12:20 PM EST (11/9) 11:13 PM EST (11/9)
Length of Visible Light 10h 56m
Length of Day
9h 56m
Waxing Crescent, 44% of the Moon is Illuminated
Nov 9
Waxing Crescent
Nov 10
First Quarter
Nov 17
Full
Nov 25
Last Quarter
Dec 2
New

Hourly Weather History & Observations

Time (EST) Temp. Windchill Dew Point Humidity Pressure Visibility Wind Dir Wind Speed Gust Speed Precip Events Conditions
12:53 AM 28.0 °F - 25.0 °F 88% 30.22 in 10.0 mi Calm Calm - N/A   Scattered Clouds
1:53 AM 32.0 °F 28.7 °F 25.0 °F 75% 30.23 in 10.0 mi WSW 3.5 mph - N/A   Overcast
2:53 AM 32.0 °F - 25.0 °F 75% 30.23 in 10.0 mi Calm Calm - N/A   Overcast
3:53 AM 30.9 °F - 27.0 °F 85% 30.24 in 10.0 mi Calm Calm - N/A   Overcast
4:53 AM 30.9 °F - 28.0 °F 89% 30.24 in 10.0 mi Calm Calm - N/A   Overcast
5:18 AM 30.9 °F - 28.0 °F 89% 30.22 in 10.0 mi Calm Calm - N/A   Overcast
5:53 AM 32.0 °F - 28.0 °F 85% 30.24 in 10.0 mi Calm Calm - N/A   Overcast
6:25 AM 32.0 °F 27.5 °F 28.0 °F 85% 30.22 in 10.0 mi ESE 4.6 mph - N/A   Overcast
6:53 AM 32.0 °F - 27.0 °F 82% 30.24 in 10.0 mi Calm Calm - N/A   Overcast
7:45 AM 33.1 °F - 27.0 °F 78% 30.23 in 10.0 mi Calm Calm - N/A   Overcast
7:53 AM 33.1 °F - 27.0 °F 78% 30.25 in 10.0 mi Calm Calm - N/A   Overcast
8:00 AM 33.1 °F 30.0 °F 28.0 °F 82% 30.23 in 10.0 mi SE 3.5 mph - N/A   Overcast
8:38 AM 33.1 °F 30.0 °F 28.9 °F 85% 30.23 in 10.0 mi East 3.5 mph - N/A   Overcast
8:53 AM 34.0 °F 29.8 °F 30.0 °F 85% 30.25 in 10.0 mi East 4.6 mph - N/A   Overcast
9:35 AM 34.0 °F 29.8 °F 30.0 °F 85% 30.22 in 10.0 mi East 4.6 mph - N/A   Overcast
9:53 AM 34.0 °F 29.8 °F 30.9 °F 89% 30.23 in 10.0 mi East 4.6 mph - N/A   Overcast
10:53 AM 36.0 °F 32.1 °F 33.1 °F 89% 30.21 in 10.0 mi East 4.6 mph - N/A   Overcast
11:53 AM 39.0 °F 34.8 °F 33.1 °F 79% 30.17 in 10.0 mi ESE 5.8 mph - N/A   Mostly Cloudy
12:53 PM 42.1 °F 38.4 °F 32.0 °F 67% 30.11 in 10.0 mi ESE 5.8 mph - N/A   Overcast
1:53 PM 44.1 °F 39.0 °F 28.9 °F 55% 30.07 in 10.0 mi SSE 9.2 mph - N/A   Mostly Cloudy
2:53 PM 43.0 °F 37.7 °F 28.9 °F 58% 30.04 in 10.0 mi SE 9.2 mph - N/A   Overcast
3:53 PM 42.1 °F 37.1 °F 28.9 °F 60% 30.02 in 10.0 mi ESE 8.1 mph - N/A   Scattered Clouds
4:53 PM 39.9 °F 34.5 °F 30.0 °F 68% 30.01 in 10.0 mi ESE 8.1 mph - N/A   Mostly Cloudy
5:53 PM 39.9 °F 35.8 °F 30.0 °F 68% 29.99 in 10.0 mi ESE 5.8 mph - N/A   Overcast
6:53 PM 41.0 °F 37.1 °F 28.9 °F 62% 30.00 in 10.0 mi ESE 5.8 mph - N/A   Overcast
7:53 PM 41.0 °F 36.4 °F 28.9 °F 62% 29.99 in 10.0 mi East 6.9 mph - N/A   Overcast
8:53 PM 42.1 °F 37.1 °F 28.0 °F 58% 29.95 in 10.0 mi ESE 8.1 mph - 0.00 in   Overcast
9:53 PM 44.1 °F 40.1 °F 28.9 °F 55% 29.92 in 10.0 mi SE 6.9 mph - 0.00 in   Overcast
10:53 PM 44.1 °F 39.5 °F 28.9 °F 55% 29.88 in 10.0 mi SSE 8.1 mph - N/A   Overcast
11:53 PM 42.1 °F 37.7 °F 33.1 °F 70% 29.85 in 10.0 mi ESE 6.9 mph - 0.00 in Rain Light Rain